Hlavní strana
METAR-TAF:

METAR-TAF

Letiště :

Williamson County Regional Airport

Marion, Illinois, Spojené státy americké

zeměpisná šířka: 37-45-01N, zeměpisná délka: 089-00-04W, výška: 144 m

Aktuální stav počasí

Zpráva byla vytvořena před 34 minutami, v 06:55 UTC
Bezvětří
Teplota -4°C
Vlhkost vzduchu 100%
Tlak 1031 hPa
Viditelnost: 16.1 km
Jasno

METAR: KMWA 190655Z AUTO 00000KT 10SM CLR M04/M04 A3045 RMK AO2 T10371043

Čas: 01:29 (07:29 UTC)


TAF: chybějící

Stav a předpovědi počasí z více než 4 000 letišť (zprávy METAR a TAF).

Červené a žluté tečky na mapě představují dostupné meteorologické stanice.

Když kurzor umístíte na tečku, zobrazí se název stanice.

Pak kliknutím zobrazíte stav a předpověď počasí.

Chcete-li změnit mapu, kliknutím na zelené tlačítko se znaménkem +mapu přiblížíte, kliknutím na zelené tlačítko se znaménkem – mapu oddálíte a kliknutím na zelené šipky přejdete na sousední mapy.


METAR-TAF: